IRIDE-MS2-HEO-1

导读

IRIDE-MS2-HEO-1是美国于2025年1月14日发射的高地球轨道卫星,是IRIDE星座计划发射的首颗卫星。该卫星配备雷达与光学传感器,可实现全天候全时段对地观测,支持地表运动监测、土地覆盖分析、水资源与海岸带观测等任务,能高频完成地形测绘,为应急响应与安全行动提供有力支撑。

基本信息
目录编号:
62697
目录名称:
IRIDE-MS2-HEO-1
国际标识:
2025-009CS
轨道中心:
EARTH
卫星名称:
IRIDE-MS2-HEO-1
卫星全名:
IRIDE-MS2-HEO-1
卫星状态:
在轨 (已飞行599 天)
发射日期:
2025-01-14 UTC
国别 :
意大利 (IT)
星等 :
--
轨道信息
数据来源 国际轨道数据
星历时间: 2026-09-05T05:36:21+0800
9小时前
查看轨道信息
半长轴: 6961.634km
偏心率: 0.0003894
轨道倾角: 97.699°
近地点辐角 98.724°
升交点赤经 324.718°
平近点角 261.442°
近地点: 580.786km
远地点: 586.208km
周期: 96.344分钟
每日圈数: 14.946379
详细信息
使用方式:
暂无
2D轨道图
3D轨道图
轨道高度分析图
轨道倾角分析图
轨道综合分析图
查看轨道综合分析图
交会数据列表
事件ID 空间交会对象 最接近时刻(TCA) 交会距离 交会风险概率(CRP) 交会风险指数(CRI) 操作
CDM_260907-030003-174606-269721
2026-09-07T
03:00:00+0000
1.125 km
极远距离
1.249058E-5 中风险 0.57
CDM_260905-000903-747406-269723
2026-09-05T
00:09:34+0000
2.883 km
极远距离
1.414432E-6 低风险 0.38
CDM_260906-145903-001606-269724
2026-09-06T
14:59:54+0000
2.748 km
极远距离
7.128987E-7 极低风险 0.32